Regional Weather Roundup
Issued by NWS

Home | Current Version | Previous Version | Graphics & Text | Print | Product List | Glossary On
Versions: 1 2 3 4 5 6 7 8 9 10 11 12 13 14 15 16 17 18 19 20 21 22 23 24 25 26 27 28 29 30 31 32 33 34 35 36 37 38 39 40 41 42 43 44 45 46 47 48 49 50
402
ASUS43 KLMK 291102
RWRKY
KENTUCKY REGIONAL WEATHER ROUNDUP
NATIONAL WEATHER SERVICE LOUISVILLE KY
700 AM EDT FRI JUL 29 2016

NOTE "FAIR" INDICATES FEW OR NO CLOUDS BELOW 12,000 FEET
WITH NO SIGNIFICANT WEATHER AND/OR OBSTRUCTIONS TO VISIBILITY.

KYZ001>023-026-027-061>063-070>075-291200-
WESTERN AND SOUTH CENTRAL KENTUCKY

CITY           SKY/WX    TMP DP  RH WIND       PRES   REMARKS
PADUCAH        MOCLDY    74  70  87 SW6       29.91S
HENDERSON      MOCLDY    72  66  83 CALM      29.92R
OWENSBORO      MOCLDY    73  73 100 S7        29.94R FOG
HOPKINSVILLE   NOT AVBL
BOWLING GREEN  CLOUDY    73  71  93 S5        29.95R
GLASGOW        NOT AVBL
$$

KYZ024-025-028>034-038-045-046-053-291200-
NORTH CENTRAL KENTUCKY

CITY           SKY/WX    TMP DP  RH WIND       PRES   REMARKS
LOUISVILLE/SDF MOCLDY    74  70  87 W7        29.93R
LOUISVILLE/LOU PTCLDY    72  69  90 CALM      29.94R
FORT KNOX      NOT AVBL
$$

KYZ035>037-039>044-047>052-055>060-089>105-291200-
NORTHEAST KENTUCKY

CITY           SKY/WX    TMP DP  RH WIND       PRES   REMARKS
LEXINGTON      CLOUDY    71  69  93 S7        29.95S
COVINGTON      FOG       71  71 100 CALM      29.94R VSB 1/8
FRANKFORT      PTCLDY    72  69  90 SW5       29.93S
$$

KYZ054-064>069-076>088-106>120-291200-
SOUTHEAST KENTUCKY

CITY           SKY/WX    TMP DP  RH WIND       PRES   REMARKS
JACKSON        FOG       69  68  96 S3        30.00R VSB 1/2
LONDON         CLOUDY    70  67  90 S7        29.99S
SOMERSET       DRIZZLE   68  68 100 S3        29.99R
MIDDLESBORO    FOG       67  67 100 CALM      30.01F VSB 1/2
MONTICELLO     CLOUDY   N/A N/A N/A NW8       30.00R
$$





USA.gov is the U.S. government's official web portal to all federal, state and local government web resources and services.